Simultaneous Nadir Overpasses (SNOs) Predictions

Prediction of SNOs between LANDSAT-8 and METOP-B Satellite Orbit:

Table of predicted SNOs for the next 14.0 days since TLE Epoch: 4/19/2025
Index Date (LANDSAT-8) Time (LANDSAT-8) Lat,Lon (LANDSAT-8) SZA (LANDSAT-8 ) Date (METOP-B) Time (METOP-B) Lat,Lon (METOP-B) SZA (METOP-B ) Distance(km) Time Diff (sec)
1 04/20/2025 21:31:08 -81.46, 82.65 107.75 04/20/2025 21:31:04 -81.46, 82.68 107.75 0.87 4
2 04/20/2025 22:20:35 81.45,-109.98 72.20 04/20/2025 22:21:45 81.46,-109.96 72.24 0.86 70
3 04/23/2025 16:15:52 81.46, -18.73 71.31 04/23/2025 16:14:48 81.46, -18.69 71.29 0.71 64
4 04/23/2025 17:05:19 -81.45, 148.80 108.72 04/23/2025 17:05:28 -81.46, 148.90 108.70 1.95 9
5 04/26/2025 11:50:02 81.46, 47.88 70.44 04/26/2025 11:49:12 81.46, 47.78 70.40 1.78 50
6 04/26/2025 12:39:29 -81.46,-144.57 109.59 04/26/2025 12:39:52 -81.46,-144.59 109.58 0.29 23
7 04/29/2025 07:24:12 81.46, 114.20 69.55 04/29/2025 07:23:36 81.46, 114.15 69.53 0.92 36
8 04/29/2025 08:13:39 -81.45, -78.23 110.47 04/29/2025 08:14:16 -81.46, -78.18 110.45 0.96 37
9 05/02/2025 02:58:20 81.45,-179.38 68.70 05/02/2025 02:57:58 81.46,-179.20 68.72 3.09 22



Historial Predications of SNOs between LANDSAT-8 and METOP-B
